{"data":{"norad_id":25118,"intl_designator":"1997-084G","name":"ORBCOMM FM06","alt_names":[],"object_type":"PAYLOAD","status":"ACTIVE","operator":null,"country":"ORB","launch_date":"1997-12-23","launch_site_code":"ERAS","launch_vehicle":null,"mission":null,"orbit_class":"UNKNOWN","rcs_meters":0.5105,"size_class":null,"mass_kg":null,"dimensions":null,"purposes":["comms"],"wikipedia_slug":null,"has_3d_model":false,"image_url":null,"decayed_at":null,"tle_current":{"epoch":"2026-09-19T18:14:49.284960Z","epoch_age_seconds":75176,"freshness":"FRESH","line1":"1 25118U 97084G   26262.76029265  .00000694  00000+0  22523-3 0  9995","line2":"2 25118  45.0147 317.3603 0002039 260.2191 192.6000 14.47755185508095","mean_motion":14.47755185,"eccentricity":0.0002039,"inclination_deg":45.0147,"raan_deg":317.3603,"arg_perigee_deg":260.2191,"mean_anomaly_deg":192.6,"bstar":0.00022523,"rev_number":50809,"period_min":99.464330359141,"perigee_km":731.53982959509,"apogee_km":734.43974709938,"semimajor_km":7111.1267883472,"source":"CELESTRAK","updated_at":"2026-09-20T09:00:44.908063Z"}}}